Visibility
15.0 15.0 15.0 15.0 15.0 15.0 14.9 15.0 15.0 15.0 13.6 8.7 6.3 5.8 8.0 12.1 7.6 12.9 12.2 10.8 15.0 15.0
15.0 15.0 15.0 15.0 15.0 15.0 15.0 15.0 6.6 15.0 9.2 10.6 7.2 4.6 5.7 8.6 6.1 15.0 15.0 15.0 15.0 15.0
15.0 15.0 15.0 15.0 15.0 15.0 15.0 15.0 15.0 15.0 15.0 15.0 15.0 12.6 8.3 6.0 11.2 15.0 15.0 15.0 15.0 15.0
15.0 15.0 15.0 15.0 15.0 15.0 15.0 15.0 15.0 15.0 15.0 15.0 15.0 14.2 13.5 15.0 13.4 15.0 15.0 15.0 15.0 15.0
15.0 15.0 15.0 15.0 15.0 15.0 15.0 15.0 15.0 15.0 15.0 15.0 15.0 15.0 15.0 15.0 15.0 15.0 15.0 15.0 15.0 15.0
15.0 15.0 15.0 15.0 15.0 15.0 15.0 15.0 15.0 15.0 15.0 15.0 15.0 15.0 15.0 15.0 15.0 15.0 15.0 15.0 15.0 14.7
15.0 15.0 15.0 15.0 15.0 15.0 15.0 15.0 15.0 15.0 15.0 15.0 15.0 15.0 15.0 15.0 15.0 15.0 15.0 15.0 13.7 9.5
15.0 15.0 15.0 15.0 15.0 15.0 15.0 15.0 15.0 15.0 15.0 14.9 13.3 15.0 15.0 15.0 15.0 15.0 15.0 15.0 0.1 0.4
15.0 15.0 15.0 15.0 15.0 15.0 15.0 15.0 5.8 6.6 10.8 15.0 15.0 8.2 15.0 15.0 15.0 15.0 5.8 0.2 2.4 2.2
15.0 15.0 15.0 15.0 15.0 15.0 15.0 15.0 15.0 7.1 6.1 7.2 10.9 12.1 12.8 14.5 15.0 12.1 3.4 8.0 13.4 13.1
15.0 15.0 15.0 15.0 15.0 15.0 4.3 7.1 7.2 0.1 0.1 0.1 6.5 15.0 15.0 15.0 10.6 1.7 1.9 15.0 7.1 9.9
15.0 15.0 15.0 15.0 0.3 15.0 0.4 0.1 0.0 0.0 0.0 0.0 12.5 15.0 15.0 15.0 10.8 5.6 12.9 10.7 9.8 14.5
14.5 0.3 0.2 1.2 0.3 0.4 0.0 0.0 0.0 0.0 1.0 15.0 15.0 15.0 15.0 6.1 8.5 15.0 15.0 15.0 15.0 15.0
0.1 0.1 0.1 0.0 0.0 0.0 0.0 0.1 0.3 1.2 3.2 12.1 11.3 15.0 15.0 15.0 15.0 15.0 15.0 15.0 15.0 15.0